Time,TemperatureF,DewpointF,PressureIn,WindDirection,WindDirectionDegrees,WindSpeedMPH,WindSpeedGustMPH,Humidity,HourlyPrecipIn,Conditions,Clouds,dailyrainin,SoftwareType,DateUTC
2013-11-26 00:01:00,28.0,24.4,30.22,ESE,105,3.0,5.0,86,0.00,,,0.00,Wunderground v.1.15,2013-11-26 05:01:00,
2013-11-26 00:02:00,28.0,24.4,30.22,WSW,257,3.0,5.0,86,0.00,,,0.00,Wunderground v.1.15,2013-11-26 05:02:00,
2013-11-26 00:04:00,27.9,24.3,30.21,SSW,208,3.0,5.0,86,0.00,,,0.00,Wunderground v.1.15,2013-11-26 05:04:00,
2013-11-26 00:05:00,27.9,24.5,30.22,WSW,237,2.0,6.0,87,0.00,,,0.00,Wunderground v.1.15,2013-11-26 05:05:00,
2013-11-26 00:06:00,27.9,24.5,30.22,SW,234,2.0,6.0,87,0.00,,,0.00,Wunderground v.1.15,2013-11-26 05:06:00,
2013-11-26 00:12:00,27.7,24.6,30.22,SW,235,3.0,6.0,88,0.00,,,0.00,Wunderground v.1.15,2013-11-26 05:12:00,
2013-11-26 00:18:00,27.6,24.8,30.22,SW,217,4.0,6.0,89,0.00,,,0.00,Wunderground v.1.15,2013-11-26 05:18:00,
2013-11-26 00:24:00,27.4,24.6,30.22,West,266,4.0,6.0,89,0.00,,,0.00,Wunderground v.1.15,2013-11-26 05:24:00,
2013-11-26 00:30:00,27.4,24.9,30.23,West,260,4.0,5.0,90,0.00,,,0.00,Wunderground v.1.15,2013-11-26 05:30:00,
2013-11-26 00:32:00,27.4,24.9,30.23,SW,229,4.0,6.0,90,0.00,,,0.00,Wunderground v.1.15,2013-11-26 05:32:00,
2013-11-26 00:38:00,27.3,24.8,30.23,West,260,5.0,6.0,90,0.00,,,0.00,Wunderground v.1.15,2013-11-26 05:38:00,
2013-11-26 00:44:00,27.4,24.9,30.23,West,262,6.0,8.0,90,0.00,,,0.00,Wunderground v.1.15,2013-11-26 05:44:00,
2013-11-26 00:50:00,27.4,24.9,30.22,WSW,238,5.0,5.0,90,0.00,,,0.00,Wunderground v.1.15,2013-11-26 05:50:00,
2013-11-26 00:56:00,27.5,24.7,30.22,SW,222,4.0,5.0,89,0.00,,,0.00,Wunderground v.1.15,2013-11-26 05:56:00,
2013-11-26 01:02:00,27.7,24.6,30.22,WSW,252,4.0,6.0,88,0.00,,,0.00,Wunderground v.1.15,2013-11-26 06:02:00,
2013-11-26 01:08:00,27.7,24.6,30.22,WSW,238,4.0,6.0,88,0.00,,,0.00,Wunderground v.1.15,2013-11-26 06:08:00,
2013-11-26 01:14:00,27.8,24.7,30.22,SW,228,4.0,6.0,88,0.00,,,0.00,Wunderground v.1.15,2013-11-26 06:14:00,
2013-11-26 01:20:00,27.9,24.5,30.22,SW,215,5.0,6.0,87,0.00,,,0.00,Wunderground v.1.15,2013-11-26 06:20:00,
2013-11-26 01:25:00,27.9,24.5,30.22,SW,228,5.0,6.0,87,0.00,,,0.00,Wunderground v.1.15,2013-11-26 06:25:00,
2013-11-26 01:31:00,28.0,24.6,30.22,South,184,4.0,5.0,87,0.00,,,0.00,Wunderground v.1.15,2013-11-26 06:31:00,
2013-11-26 01:36:00,28.1,24.7,30.22,WSW,249,5.0,9.0,87,0.00,,,0.00,Wunderground v.1.15,2013-11-26 06:36:00,
2013-11-26 01:42:00,28.2,24.8,30.22,SW,229,6.0,6.0,87,0.00,,,0.00,Wunderground v.1.15,2013-11-26 06:42:00,
2013-11-26 01:48:00,28.3,24.9,30.22,WSW,238,5.0,8.0,87,0.00,,,0.00,Wunderground v.1.15,2013-11-26 06:48:00,
2013-11-26 01:54:00,28.3,24.9,30.22,SW,235,6.0,8.0,87,0.00,,,0.00,Wunderground v.1.15,2013-11-26 06:54:00,
2013-11-26 02:00:00,28.3,24.6,30.21,SW,219,5.0,5.0,86,0.00,,,0.00,Wunderground v.1.15,2013-11-26 07:00:00,
2013-11-26 02:06:00,28.3,24.6,30.22,SW,236,5.0,7.0,86,0.00,,,0.00,Wunderground v.1.15,2013-11-26 07:06:00,
2013-11-26 02:12:00,28.4,24.7,30.22,SSW,212,5.0,6.0,86,0.00,,,0.00,Wunderground v.1.15,2013-11-26 07:12:00,
2013-11-26 02:18:00,28.5,24.8,30.22,SSW,193,5.0,6.0,86,0.00,,,0.00,Wunderground v.1.15,2013-11-26 07:18:00,
2013-11-26 02:24:00,28.5,24.8,30.21,SW,214,4.0,6.0,86,0.00,,,0.00,Wunderground v.1.15,2013-11-26 07:24:00,
2013-11-26 02:30:00,28.5,24.8,30.21,SW,221,4.0,5.0,86,0.00,,,0.00,Wunderground v.1.15,2013-11-26 07:30:00,
2013-11-26 02:35:00,28.5,24.8,30.21,SSW,205,4.0,5.0,86,0.00,,,0.00,Wunderground v.1.15,2013-11-26 07:35:00,
2013-11-26 02:41:00,28.5,24.8,30.20,South,179,3.0,5.0,86,0.00,,,0.00,Wunderground v.1.15,2013-11-26 07:41:00,
2013-11-26 02:47:00,28.6,24.9,30.20,SSW,204,2.0,5.0,86,0.00,,,0.00,Wunderground v.1.15,2013-11-26 07:47:00,
2013-11-26 02:53:00,28.6,24.7,30.20,SW,232,3.0,5.0,85,0.00,,,0.00,Wunderground v.1.15,2013-11-26 07:53:00,
2013-11-26 02:59:00,28.8,24.6,30.20,SW,232,3.0,6.0,84,0.00,,,0.00,Wunderground v.1.15,2013-11-26 07:59:00,
2013-11-26 03:05:00,28.8,24.3,30.20,SSW,211,4.0,6.0,83,0.00,,,0.00,Wunderground v.1.15,2013-11-26 08:05:00,
2013-11-26 03:11:00,28.9,24.7,30.20,SSW,199,3.0,5.0,84,0.00,,,0.00,Wunderground v.1.15,2013-11-26 08:11:00,
2013-11-26 03:17:00,28.8,24.3,30.19,South,190,3.0,6.0,83,0.00,,,0.00,Wunderground v.1.15,2013-11-26 08:17:00,
2013-11-26 03:23:00,28.8,24.3,30.19,South,181,3.0,5.0,83,0.00,,,0.00,Wunderground v.1.15,2013-11-26 08:23:00,
2013-11-26 03:29:00,28.6,23.8,30.18,SSW,207,3.0,5.0,82,0.00,,,0.00,Wunderground v.1.15,2013-11-26 08:29:00,
2013-11-26 03:35:00,28.5,23.7,30.19,SSW,210,3.0,5.0,82,0.00,,,0.00,Wunderground v.1.15,2013-11-26 08:35:00,
2013-11-26 03:41:00,28.3,23.8,30.20,SSW,204,3.0,5.0,83,0.00,,,0.00,Wunderground v.1.15,2013-11-26 08:41:00,
2013-11-26 03:46:00,28.4,23.6,30.20,SSW,203,4.0,6.0,82,0.00,,,0.00,Wunderground v.1.15,2013-11-26 08:46:00,
2013-11-26 03:52:00,28.4,23.6,30.19,SW,222,4.0,5.0,82,0.00,,,0.00,Wunderground v.1.15,2013-11-26 08:52:00,
2013-11-26 03:58:00,28.5,23.4,30.19,SSW,204,3.0,5.0,81,0.00,,,0.00,Wunderground v.1.15,2013-11-26 08:58:00,
2013-11-26 04:04:00,28.6,23.5,30.18,SW,225,3.0,5.0,81,0.00,,,0.00,Wunderground v.1.15,2013-11-26 09:04:00,
2013-11-26 04:10:00,28.6,23.5,30.19,SSW,212,3.0,5.0,81,0.00,,,0.00,Wunderground v.1.15,2013-11-26 09:10:00,
2013-11-26 04:16:00,28.7,23.6,30.19,SSW,200,3.0,5.0,81,0.00,,,0.00,Wunderground v.1.15,2013-11-26 09:16:00,
2013-11-26 04:22:00,28.8,23.7,30.19,SW,225,4.0,5.0,81,0.00,,,0.00,Wunderground v.1.15,2013-11-26 09:22:00,
2013-11-26 04:28:00,28.9,23.5,30.19,South,181,3.0,5.0,80,0.00,,,0.00,Wunderground v.1.15,2013-11-26 09:28:00,
2013-11-26 04:34:00,29.0,23.6,30.18,SSW,208,4.0,6.0,80,0.00,,,0.00,Wunderground v.1.15,2013-11-26 09:34:00,
2013-11-26 04:40:00,29.0,23.6,30.18,SSW,210,4.0,5.0,80,0.00,,,0.00,Wunderground v.1.15,2013-11-26 09:40:00,
2013-11-26 04:46:00,29.1,23.7,30.18,SW,228,4.0,6.0,80,0.00,,,0.00,Wunderground v.1.15,2013-11-26 09:46:00,
2013-11-26 04:52:00,29.1,23.4,30.17,WSW,243,4.0,5.0,79,0.00,,,0.00,Wunderground v.1.15,2013-11-26 09:52:00,
2013-11-26 04:57:00,29.2,23.5,30.18,SW,235,4.0,6.0,79,0.00,,,0.00,Wunderground v.1.15,2013-11-26 09:57:00,
2013-11-26 05:03:00,29.2,23.5,30.17,WSW,238,4.0,5.0,79,0.00,,,0.00,Wunderground v.1.15,2013-11-26 10:03:00,
2013-11-26 05:08:00,29.2,23.5,30.17,SW,224,4.0,6.0,79,0.00,,,0.00,Wunderground v.1.15,2013-11-26 10:08:00,
2013-11-26 05:14:00,29.2,23.5,30.17,SW,217,4.0,5.0,79,0.00,,,0.00,Wunderground v.1.15,2013-11-26 10:14:00,
2013-11-26 05:20:00,29.2,23.5,30.17,SW,226,4.0,4.0,79,0.00,,,0.00,Wunderground v.1.15,2013-11-26 10:20:00,
2013-11-26 05:26:00,29.3,23.6,30.17,SE,145,3.0,6.0,79,0.00,,,0.00,Wunderground v.1.15,2013-11-26 10:26:00,
2013-11-26 05:32:00,29.3,23.6,30.17,SSW,207,4.0,5.0,79,0.00,,,0.00,Wunderground v.1.15,2013-11-26 10:32:00,
2013-11-26 05:38:00,29.3,23.6,30.17,SW,224,4.0,7.0,79,0.00,,,0.00,Wunderground v.1.15,2013-11-26 10:38:00,
2013-11-26 05:43:00,29.3,23.6,30.17,SW,228,4.0,6.0,79,0.00,,,0.00,Wunderground v.1.15,2013-11-26 10:43:00,
2013-11-26 05:49:00,29.3,23.6,30.17,SW,226,4.0,6.0,79,0.00,,,0.00,Wunderground v.1.15,2013-11-26 10:49:00,
2013-11-26 05:55:00,29.3,23.6,30.17,SSW,212,4.0,5.0,79,0.00,,,0.00,Wunderground v.1.15,2013-11-26 10:55:00,
2013-11-26 06:00:00,29.3,23.9,30.17,SW,221,4.0,4.0,80,0.00,,,0.00,Wunderground v.1.15,2013-11-26 11:00:00,
2013-11-26 06:06:00,29.3,23.9,30.16,SW,223,3.0,5.0,80,0.00,,,0.00,Wunderground v.1.15,2013-11-26 11:06:00,
2013-11-26 06:12:00,29.3,23.9,30.16,SW,221,3.0,5.0,80,0.00,,,0.00,Wunderground v.1.15,2013-11-26 11:12:00,
2013-11-26 06:18:00,29.2,23.8,30.16,SW,226,3.0,5.0,80,0.00,,,0.00,Wunderground v.1.15,2013-11-26 11:18:00,
2013-11-26 06:24:00,29.2,23.8,30.16,SW,232,3.0,5.0,80,0.00,,,0.00,Wunderground v.1.15,2013-11-26 11:24:00,
2013-11-26 06:30:00,29.2,23.8,30.16,SW,221,3.0,5.0,80,0.00,,,0.00,Wunderground v.1.15,2013-11-26 11:30:00,
2013-11-26 06:36:00,29.2,24.1,30.16,SW,217,3.0,5.0,81,0.00,,,0.00,Wunderground v.1.15,2013-11-26 11:36:00,
2013-11-26 06:42:00,29.2,24.1,30.16,SW,219,2.0,5.0,81,0.00,,,0.00,Wunderground v.1.15,2013-11-26 11:42:00,
2013-11-26 06:48:00,29.2,24.1,30.15,SW,215,2.0,5.0,81,0.00,,,0.00,Wunderground v.1.15,2013-11-26 11:48:00,
2013-11-26 06:54:00,29.2,24.1,30.16,SW,215,2.0,5.0,81,0.00,,,0.00,Wunderground v.1.15,2013-11-26 11:54:00,
2013-11-26 07:00:00,29.2,23.8,30.15,SW,219,3.0,3.0,80,0.00,,,0.00,Wunderground v.1.15,2013-11-26 12:00:00,
2013-11-26 07:06:00,29.2,24.1,30.15,SSW,200,3.0,5.0,81,0.00,,,0.00,Wunderground v.1.15,2013-11-26 12:06:00,
2013-11-26 07:11:00,29.2,24.4,30.15,SSW,207,2.0,5.0,82,0.00,,,0.00,Wunderground v.1.15,2013-11-26 12:11:00,
2013-11-26 07:17:00,29.1,24.3,30.14,SW,217,2.0,5.0,82,0.00,,,0.00,Wunderground v.1.15,2013-11-26 12:17:00,
2013-11-26 07:23:00,29.0,24.2,30.13,SSW,200,1.0,5.0,82,0.00,,,0.00,Wunderground v.1.15,2013-11-26 12:23:00,
2013-11-26 07:29:00,29.0,24.5,30.14,SSW,211,1.0,5.0,83,0.00,,,0.00,Wunderground v.1.15,2013-11-26 12:29:00,
2013-11-26 07:35:00,29.0,24.2,30.14,SSW,212,2.0,5.0,82,0.00,,,0.00,Wunderground v.1.15,2013-11-26 12:35:00,
2013-11-26 07:41:00,29.1,24.3,30.15,SW,231,3.0,5.0,82,0.00,,,0.00,Wunderground v.1.15,2013-11-26 12:41:00,
2013-11-26 07:47:00,29.0,24.5,30.14,SSW,211,2.0,5.0,83,0.00,,,0.00,Wunderground v.1.15,2013-11-26 12:47:00,
2013-11-26 07:53:00,29.0,24.5,30.14,SSW,212,1.0,5.0,83,0.00,,,0.00,Wunderground v.1.15,2013-11-26 12:53:00,
2013-11-26 07:59:00,29.0,24.5,30.14,SW,224,1.0,5.0,83,0.00,,,0.00,Wunderground v.1.15,2013-11-26 12:59:00,
2013-11-26 08:05:00,29.0,24.5,30.15,WSW,245,1.0,5.0,83,0.00,,,0.00,Wunderground v.1.15,2013-11-26 13:05:00,
2013-11-26 08:11:00,29.1,24.6,30.17,SW,221,2.0,5.0,83,0.00,,,0.00,Wunderground v.1.15,2013-11-26 13:11:00,
2013-11-26 08:17:00,29.2,24.7,30.16,SSW,212,2.0,5.0,83,0.00,,,0.00,Wunderground v.1.15,2013-11-26 13:17:00,
2013-11-26 08:23:00,29.2,24.7,30.15,WSW,242,1.0,5.0,83,0.00,,,0.00,Wunderground v.1.15,2013-11-26 13:23:00,
2013-11-26 08:28:00,29.2,24.7,30.15,WSW,238,1.0,5.0,83,0.00,,,0.00,Wunderground v.1.15,2013-11-26 13:28:00,
2013-11-26 08:34:00,29.3,24.2,30.16,SW,224,2.0,5.0,81,0.00,,,0.00,Wunderground v.1.15,2013-11-26 13:34:00,
2013-11-26 08:40:00,29.4,24.6,30.16,WSW,252,2.0,5.0,82,0.00,,,0.00,Wunderground v.1.15,2013-11-26 13:40:00,
2013-11-26 08:46:00,29.4,24.6,30.15,SW,229,1.0,5.0,82,0.00,,,0.00,Wunderground v.1.15,2013-11-26 13:46:00,
2013-11-26 08:52:00,29.4,24.3,30.14,SW,231,1.0,5.0,81,0.00,,,0.00,Wunderground v.1.15,2013-11-26 13:52:00,
2013-11-26 08:58:00,29.5,24.4,30.15,SW,221,2.0,5.0,81,0.00,,,0.00,Wunderground v.1.15,2013-11-26 13:58:00,
2013-11-26 09:03:00,29.5,24.1,30.15,SW,226,3.0,5.0,80,0.00,,,0.00,Wunderground v.1.15,2013-11-26 14:03:00,
2013-11-26 09:08:00,29.5,24.4,30.14,SW,214,3.0,5.0,81,0.00,,,0.00,Wunderground v.1.15,2013-11-26 14:08:00,
2013-11-26 09:14:00,29.6,24.2,30.14,WSW,249,3.0,5.0,80,0.00,,,0.00,Wunderground v.1.15,2013-11-26 14:14:00,
2013-11-26 09:20:00,29.6,24.2,30.13,SW,218,3.0,3.0,80,0.00,,,0.00,Wunderground v.1.15,2013-11-26 14:20:00,
2013-11-26 09:26:00,29.7,24.3,30.14,SW,221,2.0,5.0,80,0.00,,,0.00,Wunderground v.1.15,2013-11-26 14:26:00,
2013-11-26 09:32:00,29.8,24.4,30.14,SW,231,3.0,6.0,80,0.00,,,0.00,Wunderground v.1.15,2013-11-26 14:32:00,
2013-11-26 09:38:00,30.0,24.6,30.13,SSW,201,3.0,6.0,80,0.00,,,0.00,Wunderground v.1.15,2013-11-26 14:38:00,
2013-11-26 09:44:00,30.0,24.6,30.12,SSW,210,2.0,5.0,80,0.00,,,0.00,Wunderground v.1.15,2013-11-26 14:44:00,
2013-11-26 09:50:00,30.1,24.4,30.12,SW,221,2.0,2.0,79,0.00,,,0.00,Wunderground v.1.15,2013-11-26 14:50:00,
2013-11-26 09:56:00,30.2,24.5,30.13,SSW,213,2.0,5.0,79,0.00,,,0.00,Wunderground v.1.15,2013-11-26 14:56:00,
2013-11-26 10:02:00,30.4,24.7,30.14,SSW,197,2.0,5.0,79,0.00,,,0.00,Wunderground v.1.15,2013-11-26 15:02:00,
2013-11-26 10:08:00,30.4,25.0,30.15,South,188,3.0,5.0,80,0.00,,,0.00,Wunderground v.1.15,2013-11-26 15:08:00,
2013-11-26 10:13:00,30.5,25.1,30.17,SW,219,3.0,6.0,80,0.00,,,0.00,Wunderground v.1.15,2013-11-26 15:13:00,
2013-11-26 10:19:00,30.5,24.8,30.16,South,174,4.0,6.0,79,0.00,,,0.00,Wunderground v.1.15,2013-11-26 15:19:00,
2013-11-26 10:25:00,30.5,24.8,30.14,SW,219,4.0,5.0,79,0.00,,,0.00,Wunderground v.1.15,2013-11-26 15:25:00,
2013-11-26 10:31:00,30.6,24.9,30.15,SSW,210,3.0,5.0,79,0.00,,,0.00,Wunderground v.1.15,2013-11-26 15:31:00,
2013-11-26 10:37:00,30.7,25.0,30.15,SW,217,3.0,5.0,79,0.00,,,0.00,Wunderground v.1.15,2013-11-26 15:37:00,
2013-11-26 10:43:00,30.8,25.1,30.15,SSW,207,4.0,5.0,79,0.00,,,0.00,Wunderground v.1.15,2013-11-26 15:43:00,
2013-11-26 10:49:00,30.9,25.2,30.14,SSW,208,4.0,7.0,79,0.00,,,0.00,Wunderground v.1.15,2013-11-26 15:49:00,
2013-11-26 10:54:00,30.9,24.8,30.14,South,181,4.0,5.0,78,0.00,,,0.00,Wunderground v.1.15,2013-11-26 15:54:00,
2013-11-26 10:59:00,31.0,24.9,30.14,South,190,4.0,6.0,78,0.00,,,0.00,Wunderground v.1.15,2013-11-26 15:59:00,
2013-11-26 11:05:00,30.9,24.5,30.13,West,260,5.0,5.0,77,0.00,,,0.00,Wunderground v.1.15,2013-11-26 16:05:00,
2013-11-26 11:11:00,31.0,24.9,30.13,SSW,212,4.0,5.0,78,0.00,,,0.00,Wunderground v.1.15,2013-11-26 16:11:00,
2013-11-26 11:17:00,31.3,25.2,30.13,South,191,3.0,5.0,78,0.00,,,0.00,Wunderground v.1.15,2013-11-26 16:17:00,
2013-11-26 11:23:00,31.6,24.9,30.13,SSW,208,4.0,5.0,76,0.00,,,0.00,Wunderground v.1.15,2013-11-26 16:23:00,
2013-11-26 11:29:00,31.6,24.9,30.12,SSW,195,5.0,7.0,76,0.00,,,0.00,Wunderground v.1.15,2013-11-26 16:29:00,
2013-11-26 11:35:00,31.9,25.2,30.13,SSW,207,4.0,6.0,76,0.00,,,0.00,Wunderground v.1.15,2013-11-26 16:35:00,
2013-11-26 11:41:00,32.2,25.5,30.12,SW,230,4.0,5.0,76,0.00,,,0.00,Wunderground v.1.15,2013-11-26 16:41:00,
2013-11-26 11:47:00,32.7,25.6,30.12,SW,218,3.0,5.0,75,0.00,,,0.00,Wunderground v.1.15,2013-11-26 16:47:00,
2013-11-26 11:53:00,32.8,25.4,30.12,SSW,211,4.0,7.0,74,0.00,,,0.00,Wunderground v.1.15,2013-11-26 16:53:00,
2013-11-26 11:58:00,33.2,26.5,30.12,South,186,5.0,7.0,76,0.00,,,0.00,Wunderground v.1.15,2013-11-26 16:58:00,
2013-11-26 12:04:00,33.9,26.5,30.12,SSE,150,6.0,8.0,74,0.00,,,0.00,Wunderground v.1.15,2013-11-26 17:04:00,
2013-11-26 12:10:00,34.4,27.0,30.11,SSE,152,6.0,7.0,74,0.00,,,0.00,Wunderground v.1.15,2013-11-26 17:10:00,
2013-11-26 12:16:00,34.2,26.1,30.11,SSE,148,6.0,7.0,72,0.00,,,0.00,Wunderground v.1.15,2013-11-26 17:16:00,
2013-11-26 12:21:00,33.8,26.1,30.10,SW,215,6.0,6.0,73,0.00,,,0.00,Wunderground v.1.15,2013-11-26 17:21:00,
2013-11-26 12:27:00,33.8,26.4,30.10,South,184,5.0,6.0,74,0.00,,,0.00,Wunderground v.1.15,2013-11-26 17:27:00,
2013-11-26 12:33:00,33.5,26.1,30.10,SE,145,5.0,6.0,74,0.00,,,0.00,Wunderground v.1.15,2013-11-26 17:33:00,
2013-11-26 12:38:00,33.5,26.4,30.10,South,169,5.0,6.0,75,0.00,,,0.00,Wunderground v.1.15,2013-11-26 17:38:00,
2013-11-26 12:44:00,33.5,26.4,30.10,SSE,149,5.0,7.0,75,0.00,,,0.00,Wunderground v.1.15,2013-11-26 17:44:00,
2013-11-26 12:50:00,33.3,26.2,30.09,SSW,201,5.0,6.0,75,0.00,,,0.00,Wunderground v.1.15,2013-11-26 17:50:00,
2013-11-26 12:56:00,33.3,26.2,30.08,SSW,199,5.0,6.0,75,0.00,,,0.00,Wunderground v.1.15,2013-11-26 17:56:00,
2013-11-26 13:02:00,33.3,26.2,30.07,SW,224,5.0,5.0,75,0.00,,,0.00,Wunderground v.1.15,2013-11-26 18:02:00,
2013-11-26 13:08:00,33.5,26.4,30.06,South,181,4.0,5.0,75,0.00,,,0.00,Wunderground v.1.15,2013-11-26 18:08:00,
2013-11-26 13:14:00,34.3,27.2,30.06,South,181,4.0,5.0,75,0.00,,,0.00,Wunderground v.1.15,2013-11-26 18:14:00,
2013-11-26 13:20:00,34.7,27.3,30.06,SW,217,4.0,5.0,74,0.00,,,0.00,Wunderground v.1.15,2013-11-26 18:20:00,
2013-11-26 13:25:00,35.0,27.5,30.06,SSW,193,4.0,5.0,74,0.00,,,0.00,Wunderground v.1.15,2013-11-26 18:25:00,
2013-11-26 13:31:00,34.7,26.9,30.05,SW,225,4.0,5.0,73,0.00,,,0.00,Wunderground v.1.15,2013-11-26 18:31:00,
2013-11-26 13:37:00,34.6,27.2,30.06,SW,221,4.0,6.0,74,0.00,,,0.00,Wunderground v.1.15,2013-11-26 18:37:00,
2013-11-26 13:43:00,34.8,27.4,30.05,SSW,195,4.0,6.0,74,0.00,,,0.00,Wunderground v.1.15,2013-11-26 18:43:00,
2013-11-26 13:49:00,34.9,27.1,30.06,SW,224,4.0,6.0,73,0.00,,,0.00,Wunderground v.1.15,2013-11-26 18:49:00,
2013-11-26 13:55:00,35.1,27.6,30.06,South,183,3.0,5.0,74,0.00,,,0.00,Wunderground v.1.15,2013-11-26 18:55:00,
2013-11-26 14:00:00,35.4,27.6,30.05,SW,226,3.0,5.0,73,0.00,,,0.00,Wunderground v.1.15,2013-11-26 19:00:00,
2013-11-26 14:06:00,35.4,27.9,30.05,SW,226,3.0,5.0,74,0.00,,,0.00,Wunderground v.1.15,2013-11-26 19:06:00,
2013-11-26 14:12:00,35.2,26.7,30.05,WSW,256,3.0,7.0,71,0.00,,,0.00,Wunderground v.1.15,2013-11-26 19:12:00,
2013-11-26 14:18:00,35.0,26.9,30.05,WSW,252,4.0,7.0,72,0.00,,,0.00,Wunderground v.1.15,2013-11-26 19:18:00,
2013-11-26 14:24:00,34.9,26.8,30.05,WSW,238,3.0,5.0,72,0.00,,,0.00,Wunderground v.1.15,2013-11-26 19:24:00,
2013-11-26 14:30:00,34.9,27.1,30.05,WNW,283,4.0,4.0,73,0.00,,,0.00,Wunderground v.1.15,2013-11-26 19:30:00,
2013-11-26 14:36:00,35.0,27.2,30.04,NW,309,3.0,5.0,73,0.00,,,0.00,Wunderground v.1.15,2013-11-26 19:36:00,
2013-11-26 14:42:00,34.9,27.1,30.05,West,263,3.0,6.0,73,0.00,,,0.00,Wunderground v.1.15,2013-11-26 19:42:00,
2013-11-26 14:48:00,34.8,27.4,30.04,NNW,341,4.0,6.0,74,0.00,,,0.00,Wunderground v.1.15,2013-11-26 19:48:00,
2013-11-26 14:54:00,34.9,27.5,30.03,WNW,302,3.0,5.0,74,0.00,,,0.00,Wunderground v.1.15,2013-11-26 19:54:00,
2013-11-26 15:00:00,34.8,27.4,30.03,SW,218,2.0,2.0,74,0.00,,,0.00,Wunderground v.1.15,2013-11-26 20:00:00,
2013-11-26 15:06:00,34.8,27.4,30.03,NW,312,2.0,5.0,74,0.00,,,0.00,Wunderground v.1.15,2013-11-26 20:06:00,
2013-11-26 15:12:00,34.8,27.4,30.03,WNW,302,4.0,5.0,74,0.00,,,0.00,Wunderground v.1.15,2013-11-26 20:12:00,
2013-11-26 15:18:00,34.7,27.6,30.02,WNW,301,4.0,6.0,75,0.00,,,0.00,Wunderground v.1.15,2013-11-26 20:18:00,
2013-11-26 15:23:00,34.6,27.5,30.02,WNW,302,4.0,5.0,75,0.00,,,0.00,Wunderground v.1.15,2013-11-26 20:23:00,
2013-11-26 15:29:00,34.6,27.8,30.02,NW,317,4.0,6.0,76,0.00,,,0.00,Wunderground v.1.15,2013-11-26 20:29:00,
2013-11-26 15:35:00,34.7,27.9,30.02,West,281,4.0,5.0,76,0.00,,,0.00,Wunderground v.1.15,2013-11-26 20:35:00,
2013-11-26 15:41:00,34.6,27.8,30.03,NW,314,4.0,5.0,76,0.00,,,0.00,Wunderground v.1.15,2013-11-26 20:41:00,
2013-11-26 15:47:00,34.7,27.9,30.03,West,264,4.0,5.0,76,0.00,,,0.00,Wunderground v.1.15,2013-11-26 20:47:00,
2013-11-26 15:53:00,34.5,27.7,30.03,WNW,293,4.0,5.0,76,0.00,,,0.00,Wunderground v.1.15,2013-11-26 20:53:00,
2013-11-26 15:58:00,34.3,27.5,30.03,WSW,244,4.0,8.0,76,0.00,,,0.00,Wunderground v.1.15,2013-11-26 20:58:00,
2013-11-26 16:04:00,34.1,27.6,30.02,WSW,253,4.0,5.0,77,0.00,,,0.00,Wunderground v.1.15,2013-11-26 21:04:00,
2013-11-26 16:10:00,34.0,27.9,30.03,East,84,3.0,3.0,78,0.00,,,0.00,Wunderground v.1.15,2013-11-26 21:10:00,
2013-11-26 16:16:00,33.8,27.7,30.03,NW,313,3.0,6.0,78,0.00,,,0.00,Wunderground v.1.15,2013-11-26 21:16:00,
2013-11-26 16:21:00,33.7,27.9,30.03,NNE,25,4.0,5.0,79,0.00,,,0.00,Wunderground v.1.15,2013-11-26 21:21:00,
2013-11-26 16:26:00,33.7,27.9,30.02,NW,311,3.0,5.0,79,0.00,,,0.00,Wunderground v.1.15,2013-11-26 21:26:00,
2013-11-26 16:32:00,33.6,28.1,30.02,SW,224,3.0,5.0,80,0.00,,,0.00,Wunderground v.1.15,2013-11-26 21:32:00,
2013-11-26 16:38:00,33.5,28.0,30.02,NW,312,2.0,5.0,80,0.00,,,0.00,Wunderground v.1.15,2013-11-26 21:38:00,
2013-11-26 16:44:00,33.5,28.0,30.02,WSW,253,2.0,5.0,80,0.00,,,0.00,Wunderground v.1.15,2013-11-26 21:44:00,
2013-11-26 16:50:00,33.4,27.9,30.03,WNW,284,2.0,5.0,80,0.00,,,0.00,Wunderground v.1.15,2013-11-26 21:50:00,
2013-11-26 16:56:00,33.5,28.0,30.03,West,280,2.0,5.0,80,0.00,,,0.00,Wunderground v.1.15,2013-11-26 21:56:00,
2013-11-26 17:02:00,33.4,28.2,30.03,West,277,1.0,5.0,81,0.00,,,0.00,Wunderground v.1.15,2013-11-26 22:02:00,
2013-11-26 17:08:00,33.4,28.2,30.02,NW,309,2.0,5.0,81,0.00,,,0.00,Wunderground v.1.15,2013-11-26 22:08:00,
2013-11-26 17:14:00,33.3,28.1,30.02,NW,304,3.0,5.0,81,0.00,,,0.00,Wunderground v.1.15,2013-11-26 22:14:00,
2013-11-26 17:20:00,33.3,28.1,30.02,NW,307,3.0,5.0,81,0.00,,,0.00,Wunderground v.1.15,2013-11-26 22:20:00,
2013-11-26 17:26:00,33.2,28.0,30.03,NW,304,3.0,5.0,81,0.00,,,0.00,Wunderground v.1.15,2013-11-26 22:26:00,
2013-11-26 17:31:00,33.1,28.2,30.02,NW,314,3.0,5.0,82,0.00,,,0.00,Wunderground v.1.15,2013-11-26 22:31:00,
2013-11-26 17:37:00,33.0,28.1,30.02,NW,307,2.0,5.0,82,0.00,,,0.00,Wunderground v.1.15,2013-11-26 22:37:00,
2013-11-26 17:43:00,32.9,28.0,30.03,NW,307,3.0,5.0,82,0.00,,,0.00,Wunderground v.1.15,2013-11-26 22:43:00,
2013-11-26 17:49:00,32.9,27.7,30.02,NW,317,3.0,5.0,81,0.00,,,0.00,Wunderground v.1.15,2013-11-26 22:49:00,
2013-11-26 17:54:00,32.9,27.7,30.02,WNW,299,3.0,5.0,81,0.00,,,0.00,Wunderground v.1.15,2013-11-26 22:54:00,
2013-11-26 18:01:00,32.8,27.6,30.02,NW,319,3.0,7.0,81,0.00,,,0.00,Wunderground v.1.15,2013-11-26 23:01:00,
2013-11-26 18:06:00,32.7,27.5,30.02,NW,311,4.0,7.0,81,0.00,,,0.00,Wunderground v.1.15,2013-11-26 23:06:00,
2013-11-26 18:12:00,32.7,27.8,30.03,NW,315,5.0,5.0,82,0.00,,,0.00,Wunderground v.1.15,2013-11-26 23:12:00,
2013-11-26 18:17:00,32.6,27.7,30.03,WNW,299,4.0,6.0,82,0.00,,,0.00,Wunderground v.1.15,2013-11-26 23:17:00,
2013-11-26 18:23:00,32.6,27.7,30.03,WNW,299,4.0,6.0,82,0.00,,,0.00,Wunderground v.1.15,2013-11-26 23:23:00,
2013-11-26 18:29:00,32.6,27.7,30.03,NW,316,6.0,9.0,82,0.00,,,0.00,Wunderground v.1.15,2013-11-26 23:29:00,
2013-11-26 18:35:00,32.6,27.7,30.03,NW,307,6.0,7.0,82,0.00,,,0.00,Wunderground v.1.15,2013-11-26 23:35:00,
2013-11-26 18:40:00,32.6,27.7,30.04,NW,310,5.0,7.0,82,0.00,,,0.00,Wunderground v.1.15,2013-11-26 23:40:00,
2013-11-26 18:46:00,32.5,27.9,30.04,NW,304,5.0,8.0,83,0.00,,,0.00,Wunderground v.1.15,2013-11-26 23:46:00,
2013-11-26 18:52:00,32.5,27.9,30.04,NNW,334,5.0,5.0,83,0.00,,,0.00,Wunderground v.1.15,2013-11-26 23:52:00,
2013-11-26 18:58:00,32.4,27.5,30.04,WNW,289,4.0,8.0,82,0.00,,,0.00,Wunderground v.1.15,2013-11-26 23:58:00,
2013-11-26 19:04:00,32.3,27.7,30.04,WNW,295,6.0,6.0,83,0.00,,,0.00,Wunderground v.1.15,2013-11-27 00:04:00,
2013-11-26 19:10:00,32.2,27.6,30.04,NW,318,5.0,9.0,83,0.00,,,0.00,Wunderground v.1.15,2013-11-27 00:10:00,
2013-11-26 19:16:00,32.1,27.5,30.03,NW,309,4.0,5.0,83,0.00,,,0.00,Wunderground v.1.15,2013-11-27 00:16:00,
2013-11-26 19:21:00,32.0,27.4,30.03,NW,325,4.0,5.0,83,0.00,,,0.00,Wunderground v.1.15,2013-11-27 00:21:00,
2013-11-26 19:27:00,32.0,27.4,30.03,NW,319,4.0,6.0,83,0.00,,,0.00,Wunderground v.1.15,2013-11-27 00:27:00,
2013-11-26 19:32:00,31.9,27.3,30.03,NNW,328,5.0,6.0,83,0.00,,,0.00,Wunderground v.1.15,2013-11-27 00:32:00,
2013-11-26 19:38:00,31.9,27.6,30.03,NW,309,5.0,6.0,84,0.00,,,0.00,Wunderground v.1.15,2013-11-27 00:38:00,
2013-11-26 19:44:00,31.8,27.5,30.03,NNW,341,5.0,8.0,84,0.00,,,0.00,Wunderground v.1.15,2013-11-27 00:44:00,
2013-11-26 19:50:00,31.8,27.5,30.03,WNW,302,6.0,9.0,84,0.00,,,0.00,Wunderground v.1.15,2013-11-27 00:50:00,
2013-11-26 19:56:00,31.8,27.8,30.03,NW,321,6.0,7.0,85,0.00,,,0.00,Wunderground v.1.15,2013-11-27 00:56:00,
2013-11-26 20:01:00,31.7,27.7,30.03,NW,325,6.0,6.0,85,0.00,,,0.00,Wunderground v.1.15,2013-11-27 01:01:00,
2013-11-26 20:07:00,31.7,28.0,30.04,NW,316,6.0,9.0,86,0.00,,,0.00,Wunderground v.1.15,2013-11-27 01:07:00,
2013-11-26 20:13:00,31.6,28.2,30.04,NW,325,7.0,10.0,87,0.00,,,0.00,Wunderground v.1.15,2013-11-27 01:13:00,
2013-11-26 20:18:00,31.4,28.3,30.04,NW,307,7.0,13.0,88,0.00,,,0.00,Wunderground v.1.15,2013-11-27 01:18:00,
2013-11-26 20:24:00,31.2,28.3,30.05,NNW,334,10.0,13.0,89,0.00,,,0.00,Wunderground v.1.15,2013-11-27 01:24:00,
2013-11-26 20:30:00,31.0,28.4,30.04,NW,319,10.0,12.0,90,0.00,,,0.00,Wunderground v.1.15,2013-11-27 01:30:00,
2013-11-26 20:36:00,30.8,27.7,30.04,NNW,327,13.0,20.0,88,0.00,,,0.00,Wunderground v.1.15,2013-11-27 01:36:00,
2013-11-26 20:42:00,30.5,27.1,30.05,NW,326,17.0,17.0,87,0.00,,,0.00,Wunderground v.1.15,2013-11-27 01:42:00,
2013-11-26 20:48:00,30.3,26.9,30.05,NNW,342,15.0,17.0,87,0.00,,,0.00,Wunderground v.1.15,2013-11-27 01:48:00,
2013-11-26 20:54:00,30.0,26.6,30.05,NNW,330,13.0,18.0,87,0.00,,,0.00,Wunderground v.1.15,2013-11-27 01:54:00,
2013-11-26 21:00:00,29.7,26.6,30.05,North,354,13.0,18.0,88,0.00,,,0.00,Wunderground v.1.15,2013-11-27 02:00:00,
2013-11-26 21:06:00,29.5,26.7,30.06,North,352,14.0,21.0,89,0.00,,,0.00,Wunderground v.1.15,2013-11-27 02:06:00,
2013-11-26 21:11:00,29.4,26.3,30.06,NW,325,16.0,17.0,88,0.00,,,0.00,Wunderground v.1.15,2013-11-27 02:11:00,
2013-11-26 21:17:00,29.2,26.1,30.06,NW,312,15.0,17.0,88,0.00,,,0.00,Wunderground v.1.15,2013-11-27 02:17:00,
2013-11-26 21:23:00,29.0,25.6,30.06,NNW,348,13.0,16.0,87,0.00,,,0.00,Wunderground v.1.15,2013-11-27 02:23:00,
2013-11-26 21:29:00,28.9,25.5,30.06,North,359,14.0,18.0,87,0.00,,,0.00,Wunderground v.1.15,2013-11-27 02:29:00,
2013-11-26 21:34:00,28.8,25.4,30.06,North,356,15.0,15.0,87,0.00,,,0.00,Wunderground v.1.15,2013-11-27 02:34:00,
2013-11-26 21:40:00,28.8,25.4,30.06,NNE,13,13.0,13.0,87,0.00,,,0.00,Wunderground v.1.15,2013-11-27 02:40:00,
2013-11-26 21:46:00,28.8,25.4,30.05,North,352,13.0,15.0,87,0.00,,,0.00,Wunderground v.1.15,2013-11-27 02:46:00,
2013-11-26 21:52:00,28.7,25.6,30.05,NNW,330,13.0,13.0,88,0.00,,,0.00,Wunderground v.1.15,2013-11-27 02:52:00,
2013-11-26 21:58:00,28.7,25.3,30.06,NNW,346,13.0,16.0,87,0.00,,,0.00,Wunderground v.1.15,2013-11-27 02:58:00,
2013-11-26 22:04:00,28.6,25.5,30.06,NNW,327,12.0,13.0,88,0.00,,,0.00,Wunderground v.1.15,2013-11-27 03:04:00,
2013-11-26 22:10:00,28.5,25.7,30.06,NNW,334,10.0,10.0,89,0.00,,,0.00,Wunderground v.1.15,2013-11-27 03:10:00,
2013-11-26 22:15:00,28.4,25.3,30.06,NNW,342,11.0,12.0,88,0.00,,,0.00,Wunderground v.1.15,2013-11-27 03:15:00,
2013-11-26 22:21:00,28.2,25.1,30.06,NW,321,11.0,13.0,88,0.00,,,0.00,Wunderground v.1.15,2013-11-27 03:21:00,
2013-11-26 22:27:00,28.2,25.1,30.06,NNW,333,10.0,15.0,88,0.00,,,0.00,Wunderground v.1.15,2013-11-27 03:27:00,
2013-11-26 22:33:00,28.0,24.6,30.06,NNW,329,10.0,18.0,87,0.00,,,0.00,Wunderground v.1.15,2013-11-27 03:33:00,
2013-11-26 22:39:00,27.8,24.4,30.06,NNW,334,12.0,18.0,87,0.00,,,0.00,Wunderground v.1.15,2013-11-27 03:39:00,
2013-11-26 22:45:00,27.7,24.3,30.06,NNW,333,12.0,13.0,87,0.00,,,0.00,Wunderground v.1.15,2013-11-27 03:45:00,
2013-11-26 22:51:00,27.5,24.1,30.06,NNW,333,10.0,11.0,87,0.00,,,0.00,Wunderground v.1.15,2013-11-27 03:51:00,
2013-11-26 22:57:00,27.3,23.9,30.06,NNW,335,7.0,11.0,87,0.00,,,0.00,Wunderground v.1.15,2013-11-27 03:57:00,
2013-11-26 23:03:00,27.2,23.8,30.06,NW,326,7.0,9.0,87,0.00,,,0.00,Wunderground v.1.15,2013-11-27 04:03:00,
2013-11-26 23:09:00,27.1,23.7,30.06,NW,325,8.0,10.0,87,0.00,,,0.00,Wunderground v.1.15,2013-11-27 04:09:00,
2013-11-26 23:14:00,27.1,23.7,30.06,NNW,343,8.0,10.0,87,0.00,,,0.00,Wunderground v.1.15,2013-11-27 04:14:00,
2013-11-26 23:20:00,26.9,23.8,30.07,NW,325,6.0,10.0,88,0.00,,,0.00,Wunderground v.1.15,2013-11-27 04:20:00,
2013-11-26 23:26:00,26.9,23.8,30.06,NNW,348,5.0,6.0,88,0.00,,,0.00,Wunderground v.1.15,2013-11-27 04:26:00,
2013-11-26 23:32:00,26.9,23.8,30.07,NNW,340,5.0,5.0,88,0.00,,,0.00,Wunderground v.1.15,2013-11-27 04:32:00,
2013-11-26 23:38:00,26.9,23.8,30.07,NW,310,4.0,6.0,88,0.00,,,0.00,Wunderground v.1.15,2013-11-27 04:38:00,
2013-11-26 23:44:00,27.0,24.2,30.07,NW,311,4.0,7.0,89,0.00,,,0.00,Wunderground v.1.15,2013-11-27 04:44:00,
2013-11-26 23:50:00,27.0,24.2,30.07,NW,307,4.0,7.0,89,0.00,,,0.00,Wunderground v.1.15,2013-11-27 04:50:00,
2013-11-26 23:56:00,27.1,24.3,30.07,NNW,330,4.0,6.0,89,0.00,,,0.00,Wunderground v.1.15,2013-11-27 04:56:00,